CW7615 Weather Reports


Display with metric or nautical units.
time (UTC)temp
F
wind
direction
speed
MPH
gust
MPH
rain 1hr
in
rain 24hr
in
rain mn
in
humidity
%
barometer
mb
20260904154513 84 134 4.0 7.0 0.00 0.00 0.00 74 1018.6
20260904154013 84 123 2.0 4.0 0.00 0.00 0.00 74 1018.5
20260904153512 83 122 2.0 4.0 0.00 0.00 0.00 75 1018.6
20260904153018 82 119 2.0 3.0 0.00 0.00 0.00 77 1018.7
20260904152510 81 121 0.0 4.0 0.00 0.00 0.00 78 1018.8
20260904152010 81 120 2.0 4.0 0.00 0.00 0.00 78 1019.0
20260904151509 81 114 2.0 6.0 0.00 0.00 0.00 79 1019.0
20260904151009 81 126 3.0 7.0 0.00 0.00 0.00 78 1019.1
20260904150509 81 118 4.0 7.0 0.00 0.00 0.00 78 1019.3
20260904150017 82 129 2.0 6.0 0.00 0.00 0.00 77 1019.2
20260904145509 82 126 2.0 7.0 0.00 0.00 0.00 77 1019.2
20260904145008 82 132 3.0 9.0 0.00 0.00 0.00 76 1019.2
20260904144508 83 103 7.0 9.0 0.00 0.00 0.00 76 1019.3
20260904144007 83 109 4.0 9.0 0.00 0.00 0.00 76 1019.2
20260904143507 83 168 4.0 9.0 0.00 0.00 0.00 76 1019.3
20260904143007 83 132 3.0 9.0 0.00 0.00 0.00 75 1019.3
20260904142507 83 128 6.0 9.0 0.00 0.00 0.00 74 1019.1
20260904142007 83 131 3.0 9.0 0.00 0.00 0.00 75 1019.3
20260904141506 83 146 4.0 9.0 0.00 0.00 0.00 75 1019.4
20260904141005 84 119 6.0 11.0 0.00 0.00 0.00 75 1019.4
20260904140505 84 117 6.0 11.0 0.00 0.00 0.00 74 1019.4
20260904140009 84 121 5.0 9.0 0.00 0.00 0.00 75 1019.5
20260904135503 83 111 6.0 9.0 0.00 0.00 0.00 75 1019.6
20260904135002 83 134 3.0 8.0 0.00 0.00 0.00 76 1019.6
20260904134500 82 122 4.0 8.0 0.00 0.00 0.00 77 1019.9
20260904134100 82 109 4.0 8.0 0.00 0.00 0.00 77 1019.9
20260904133559 83 124 5.0 8.0 0.00 0.00 0.00 76 1020.2
20260904133501 83 125 5.0 8.0 0.00 0.00 0.00 76 1020.1
20260904133059 83 113 5.0 10.0 0.00 0.00 0.00 76 1020.1
20260904132600 83 107 4.0 10.0 0.00 0.00 0.00 76 1020.1
20260904132059 83 126 5.0 8.0 0.00 0.00 0.00 76 1020.3
20260904131629 83 138 3.0 8.0 0.00 0.00 0.00 77 1020.2
20260904131057 82 130 4.0 8.0 0.00 0.00 0.00 77 1020.2
20260904130556 83 121 4.0 9.0 0.00 0.00 0.00 76 1020.3
20260904130056 83 118 4.0 9.0 0.00 0.00 0.00 77 1020.4
20260904125556 83 98 3.0 9.0 0.00 0.00 0.00 77 1020.4
20260904125157 82 121 4.0 9.0 0.00 0.00 0.00 78 1020.5
20260904124554 82 98 3.0 8.0 0.00 0.00 0.00 78 1020.6
20260904124054 82 125 4.0 9.0 0.00 0.00 0.00 78 1020.6
20260904123553 82 111 5.0 8.0 0.00 0.00 0.00 78 1020.8
20260904123057 82 119 4.0 8.0 0.00 0.00 0.00 80 1020.8
20260904122554 81 134 3.0 8.0 0.00 0.00 0.00 79 1020.9
20260904122052 81 113 4.0 8.0 0.00 0.00 0.00 80 1020.9
20260904121553 81 113 5.0 10.0 0.00 0.00 0.00 79 1020.9
20260904121151 81 123 5.0 10.0 0.00 0.00 0.00 79 1020.9
20260904120552 82 131 5.0 9.0 0.00 0.00 0.00 78 1020.9
20260904120055 82 115 2.0 10.0 0.00 0.00 0.00 79 1020.9
20260904115552 82 107 6.0 10.0 0.00 0.00 0.00 78 1021.0
20260904115050 82 151 5.0 10.0 0.00 0.00 0.00 78 1020.9
20260904114553 82 114 4.0 10.0 0.00 0.00 0.00 78 1020.9
20260904114049 82 123 5.0 10.0 0.00 0.00 0.00 78 1020.9
20260904113549 82 116 4.0 8.0 0.00 0.00 0.00 78 1021.0
20260904113052 82 116 3.0 10.0 0.00 0.00 0.00 78 1021.0
20260904112547 81 103 4.0 10.0 0.00 0.00 0.00 79 1021.0
20260904112047 81 126 5.0 11.0 0.00 0.00 0.00 78 1021.2
20260904111547 82 119 7.0 11.0 0.00 0.00 0.00 78 1021.2
20260904111050 82 119 6.0 10.0 0.00 0.00 0.00 77 1021.1
20260904110550 83 130 5.0 9.0 0.00 0.00 0.00 77 1021.2
20260904110045 83 114 6.0 9.0 0.00 0.00 0.00 76 1021.3
20260904105545 83 131 4.0 8.0 0.00 0.00 0.00 77 1021.4
20260904105046 83 88 2.0 7.0 0.00 0.00 0.00 78 1021.3
20260904104543 82 121 2.0 7.0 0.00 0.00 0.00 78 1021.3
20260904104044 82 126 2.0 7.0 0.00 0.00 0.00 78 1021.4
20260904103540 82 121 4.0 10.0 0.00 0.00 0.00 79 1021.5
20260904103050 82 123 3.0 9.0 0.00 0.00 0.00 79 1021.5
20260904102539 81 107 2.0 8.0 0.00 0.00 0.00 80 1021.5
20260904102037 81 90 4.0 8.0 0.00 0.00 0.00 81 1021.5
20260904101538 80 119 2.0 8.0 0.00 0.00 0.00 81 1021.5
20260904101035 80 113 3.0 8.0 0.00 0.00 0.00 81 1021.6
20260904100534 80 130 2.0 7.0 0.00 0.00 0.00 81 1021.7
20260904100034 80 116 4.0 7.0 0.00 0.00 0.00 81 1021.8
20260904095534 80 117 3.0 9.0 0.00 0.00 0.00 81 1021.7
20260904095034 80 104 4.0 9.0 0.00 0.00 0.00 81 1021.7
20260904094532 80 123 4.0 8.0 0.00 0.00 0.00 81 1021.7
20260904094031 80 139 4.0 8.0 0.00 0.00 0.00 80 1021.8
20260904093531 81 134 4.0 8.0 0.00 0.00 0.00 80 1021.6
20260904093031 81 133 3.0 7.0 0.00 0.00 0.00 80 1021.7
20260904092533 80 117 2.0 7.0 0.00 0.00 0.00 81 1021.7
20260904092029 80 128 3.0 8.0 0.00 0.00 0.00 81 1021.7
20260904091527 80 115 4.0 8.0 0.00 0.00 0.00 81 1021.7
20260904091028 80 148 2.0 7.0 0.00 0.00 0.00 81 1021.6
20260904090525 80 100 3.0 7.0 0.00 0.00 0.00 81 1021.7
20260904090024 80 140 3.0 8.0 0.00 0.00 0.00 81 1021.7
20260904085523 79 105 4.0 8.0 0.00 0.00 0.00 81 1021.5
20260904085021 79 98 4.0 7.0 0.00 0.00 0.00 81 1021.6
20260904084520 78 113 3.0 7.0 0.00 0.00 0.00 82 1021.5
20260904084018 78 122 3.0 7.0 0.00 0.00 0.00 83 1021.5
20260904083516 77 128 1.0 3.0 0.00 0.00 0.00 85 1021.5
20260904083015 76 167 1.0 4.0 0.00 0.00 0.00 85 1021.3
20260904082515 76 175 2.0 5.0 0.00 0.00 0.00 85 1021.3
20260904082012 76 182 3.0 5.0 0.00 0.00 0.00 85 1021.3
20260904081511 75 190 2.0 3.0 0.00 0.00 0.00 86 1021.2
20260904081009 75 161 1.0 4.0 0.00 0.00 0.00 87 1021.3
20260904080509 75 145 0.0 0.0 0.00 0.00 0.00 87 1021.4
20260904080007 75 142 0.0 0.0 0.00 0.00 0.00 87 1021.5
20260904075506 75 142 0.0 0.0 0.00 0.00 0.00 88 1021.7
20260904075005 75 92 0.0 1.0 0.00 0.00 0.00 88 1021.6
20260904074510 74 91 0.0 1.0 0.00 0.00 0.00 89 1021.7
20260904074009 74 90 0.0 0.0 0.00 0.00 0.00 88 1021.6
20260904073503 74 90 0.0 0.0 0.00 0.00 0.00 88 1021.7
20260904073007 74 15 0.0 0.0 0.00 0.00 0.00 88 1021.7
20260904072501 74 15 0.0 1.0 0.00 0.00 0.00 88 1021.6
20260904072000 73 15 0.0 3.0 0.00 0.00 0.00 88 1021.7
20260904071600 73 14 0.0 3.0 0.00 0.00 0.00 87 1021.7
20260904071100 72 13 1.0 3.0 0.00 0.00 0.00 85 1021.7
20260904070557 72 10 1.0 5.0 0.00 0.00 0.00 84 1021.7
20260904070116 72 5 1.0 5.0 0.00 0.00 0.00 83 1021.8
20260904065557 71 355 1.0 4.0 0.00 0.00 0.00 84 1021.8
20260904065056 71 355 1.0 4.0 0.00 0.00 0.00 83 1021.8
20260904064551 71 350 0.0 2.0 0.00 0.00 0.00 84 1021.8
20260904064051 71 341 0.0 3.0 0.00 0.00 0.00 85 1021.7
20260904063554 71 342 1.0 4.0 0.00 0.00 0.00 86 1021.5
20260904063100 70 355 1.0 4.0 0.00 0.00 0.00 83 1021.6
20260904062550 70 343 2.0 4.0 0.00 0.00 0.00 83 1021.5
20260904062049 70 350 0.0 3.0 0.00 0.00 0.00 84 1021.5
20260904061549 70 350 1.0 3.0 0.00 0.00 0.00 85 1021.3
20260904061048 70 349 0.0 2.0 0.00 0.00 0.00 86 1021.3
20260904060548 70 350 0.0 2.0 0.00 0.00 0.00 86 1021.3
20260904060048 70 350 0.0 0.0 0.00 0.00 0.00 84 1021.3
20260904055546 70 350 0.0 0.0 0.00 0.00 0.00 84 1021.2
20260904055050 71 350 0.0 1.0 0.00 0.00 0.00 85 1021.2
20260904054546 71 350 0.0 1.0 0.00 0.00 0.00 84 1021.2
20260904054045 70 350 0.0 1.0 0.00 0.00 0.00 81 1021.1
20260904053544 70 350 0.0 3.0 0.00 0.00 0.00 78 1021.0
20260904053044 70 350 1.0 3.0 0.00 0.00 0.00 78 1021.1
20260904052543 70 355 1.0 2.0 0.00 0.00 0.00 81 1021.0
20260904052042 71 355 0.0 1.0 0.00 0.00 0.00 83 1021.1
20260904051542 71 355 0.0 1.0 0.00 0.00 0.00 83 1021.2
20260904051042 71 355 0.0 1.0 0.00 0.00 0.00 82 1021.4
20260904050540 71 355 0.0 1.0 0.00 0.00 0.00 81 1021.4
20260904050041 71 355 0.0 1.0 0.00 0.00 0.00 79 1021.4
20260904045541 71 355 0.0 2.0 0.00 0.00 0.00 77 1021.3
20260904045039 71 355 0.0 3.0 0.00 0.00 0.00 76 1021.3
20260904044539 71 355 1.0 4.0 0.00 0.00 0.00 76 1021.4
20260904044038 71 350 2.0 5.0 0.00 0.00 0.00 76 1021.4
20260904043549 71 319 2.0 5.0 0.00 0.00 0.00 77 1021.4
20260904043038 71 360 1.0 4.0 0.00 0.00 0.00 78 1021.3
20260904042538 71 360 1.0 4.0 0.00 0.00 0.00 77 1021.2
20260904042038 71 342 1.0 3.0 0.00 0.00 0.00 78 1021.3
20260904041538 71 336 0.0 3.0 0.00 0.00 0.00 76 1021.3
20260904041040 71 329 1.0 4.0 0.00 0.00 0.00 75 1021.3
20260904040537 71 5 1.0 4.0 0.00 0.00 0.00 76 1021.3
20260904040039 72 341 0.0 1.0 0.00 0.00 0.00 79 1021.4
20260904035537 72 341 0.0 2.0 0.00 0.00 0.00 79 1021.4
20260904035035 71 341 1.0 4.0 0.00 0.00 0.00 75 1021.2
20260904034535 71 340 1.0 4.0 0.00 0.00 0.00 74 1021.2
20260904034039 71 355 2.0 4.0 0.00 0.00 0.00 75 1021.2
20260904033535 72 346 0.0 4.0 0.00 0.00 0.00 75 1021.4
20260904033036 72 340 0.0 3.0 0.00 0.00 0.00 75 1021.5
20260904032533 72 327 0.0 4.0 0.00 0.00 0.00 76 1021.5
20260904032033 72 327 0.0 4.0 0.00 0.00 0.00 75 1021.5
20260904031535 72 334 1.0 4.0 0.00 0.00 0.00 75 1021.4
20260904031034 72 360 0.0 3.0 0.00 0.00 0.00 76 1021.4
20260904030532 72 360 1.0 3.0 0.00 0.00 0.00 75 1021.4
20260904030031 72 360 0.0 2.0 0.00 0.00 0.00 76 1021.4
20260904025531 73 360 0.0 0.0 0.00 0.00 0.00 79 1021.3
20260904025031 73 360 0.0 1.0 0.00 0.00 0.00 77 1021.3
20260904024531 73 360 0.0 1.0 0.00 0.00 0.00 75 1021.2
20260904024030 73 360 0.0 0.0 0.00 0.00 0.00 75 1021.1
20260904023529 73 360 0.0 3.0 0.00 0.00 0.00 74 1021.0
20260904023029 73 360 0.0 5.0 0.00 0.00 0.00 73 1021.1
20260904022529 73 360 2.0 5.0 0.00 0.00 0.00 73 1021.0
20260904022033 73 355 2.0 5.0 0.00 0.00 0.00 74 1021.0
20260904021535 73 355 3.0 5.0 0.00 0.00 0.00 74 1021.0
20260904021029 73 339 2.0 5.0 0.00 0.00 0.00 75 1021.0
20260904020528 73 351 3.0 5.0 0.00 0.00 0.00 75 1021.0
20260904020026 73 346 2.0 6.0 0.00 0.00 0.00 76 1021.1
20260904015526 73 333 2.0 6.0 0.00 0.00 0.00 76 1021.0
20260904015027 73 311 2.0 5.0 0.00 0.00 0.00 77 1021.2
20260904014525 73 326 3.0 5.0 0.00 0.00 0.00 77 1021.3
20260904014022 73 344 2.0 5.0 0.00 0.00 0.00 78 1021.2
20260904013521 73 323 2.0 4.0 0.00 0.00 0.00 78 1021.4
20260904013023 73 344 1.0 6.0 0.00 0.00 0.00 78 1021.4
20260904012520 73 334 3.0 6.0 0.00 0.00 0.00 78 1021.5
20260904012026 73 314 1.0 3.0 0.00 0.00 0.00 81 1021.7
20260904011518 73 317 1.0 4.0 0.00 0.00 0.00 83 1021.7
20260904011019 74 322 1.0 5.0 0.00 0.00 0.00 83 1021.7
20260904010520 74 329 2.0 5.0 0.00 0.00 0.00 83 1021.7
20260904010018 74 319 1.0 4.0 0.00 0.00 0.00 83 1021.9
20260904005518 74 331 0.0 3.0 0.00 0.00 0.00 84 1021.9
20260904005017 74 331 0.0 2.0 0.00 0.00 0.00 84 1021.9
20260904004517 74 331 0.0 3.0 0.00 0.00 0.00 83 1022.0
20260904004017 74 330 1.0 3.0 0.00 0.00 0.00 81 1022.0
20260904003516 74 329 1.0 4.0 0.00 0.00 0.00 81 1022.0
20260904003015 74 350 1.0 4.0 0.00 0.00 0.00 82 1022.0
20260904002515 74 355 0.0 0.0 0.00 0.00 0.00 83 1022.0
20260904002016 74 355 0.0 0.0 0.00 0.00 0.00 83 1022.0
20260904001517 74 355 0.0 0.0 0.00 0.00 0.00 83 1022.0
20260904001014 74 355 0.0 0.0 0.00 0.00 0.00 83 1021.9
20260904000514 74 355 0.0 0.0 0.00 0.00 0.00 84 1021.8
20260904000015 74 355 0.0 0.0 0.00 0.00 0.00 84 1021.8
20260903235513 74 355 0.0 0.0 0.00 0.00 0.00 83 1021.8
20260903235013 74 355 0.0 0.0 0.00 0.00 0.00 81 1021.8
20260903234513 74 355 0.0 0.0 0.00 0.00 0.00 80 1021.8
20260903234012 74 350 0.0 0.0 0.00 0.00 0.00 80 1021.8
20260903233510 74 350 0.0 0.0 0.00 0.00 0.00 82 1021.8
20260903233010 75 345 0.0 0.0 0.00 0.00 0.00 85 1021.8
20260903232510 75 344 0.0 0.0 0.00 0.00 0.00 85 1021.9
20260903232009 75 344 0.0 0.0 0.00 0.00 0.00 85 1022.0
20260903231507 75 344 0.0 0.0 0.00 0.00 0.00 85 1022.0
20260903231007 75 344 0.0 0.0 0.00 0.00 0.00 86 1022.0
20260903230507 75 344 0.0 0.0 0.00 0.00 0.00 85 1021.9
20260903230011 75 344 0.0 0.0 0.00 0.00 0.00 85 1021.9
20260903225507 75 344 0.0 0.0 0.00 0.00 0.00 85 1021.9
20260903225005 75 344 0.0 0.0 0.00 0.00 0.00 85 1021.8
20260903224504 75 344 0.0 0.0 0.00 0.00 0.00 85 1021.8
20260903224004 76 344 0.0 0.0 0.00 0.00 0.00 85 1021.8
20260903223505 76 344 0.0 0.0 0.00 0.00 0.00 85 1021.8
20260903223003 76 344 0.0 0.0 0.00 0.00 0.00 85 1021.7
20260903222503 76 344 0.0 0.0 0.00 0.00 0.00 85 1021.6
20260903222004 76 344 0.0 0.0 0.00 0.00 0.00 85 1021.7
20260903221601 76 344 0.0 0.0 0.00 0.00 0.00 85 1021.7
20260903221100 76 344 0.0 0.0 0.00 0.00 0.00 84 1021.6
20260903220557 76 344 0.0 0.0 0.00 0.00 0.00 84 1021.7
20260903220122 76 344 0.0 0.0 0.00 0.00 0.00 84 1021.6
20260903215557 76 344 0.0 3.0 0.00 0.00 0.00 84 1021.7
20260903215055 76 344 1.0 3.0 0.00 0.00 0.00 84 1021.8
20260903214555 76 329 0.0 1.0 0.00 0.00 0.00 85 1021.8
20260903214056 77 329 0.0 2.0 0.00 0.00 0.00 85 1021.8
20260903213556 77 329 0.0 2.0 0.00 0.00 0.00 84 1021.9
20260903213055 77 329 0.0 0.0 0.00 0.00 0.00 84 1021.8
20260903212555 77 329 0.0 0.0 0.00 0.00 0.00 84 1021.8
20260903212055 77 329 0.0 0.0 0.00 0.00 0.00 84 1021.8
20260903211557 77 329 0.0 0.0 0.00 0.00 0.00 84 1021.9
20260903211057 77 329 0.0 0.0 0.00 0.00 0.00 83 1021.9
20260903210555 77 329 0.0 0.0 0.00 0.00 0.00 83 1021.9
20260903210059 77 329 0.0 0.0 0.00 0.00 0.00 83 1022.0
20260903205556 77 329 0.0 0.0 0.00 0.00 0.00 83 1022.0
20260903205053 77 329 0.0 0.0 0.00 0.00 0.00 82 1021.9
20260903204553 78 329 0.0 0.0 0.00 0.00 0.00 82 1022.0
20260903204052 78 329 0.0 0.0 0.00 0.00 0.00 82 1022.0
20260903203552 78 329 0.0 0.0 0.00 0.00 0.00 82 1021.9
20260903203104 79 329 0.0 0.0 0.00 0.00 0.00 82 1021.8
20260903202553 79 329 0.0 0.0 0.00 0.00 0.00 81 1021.7
20260903202057 79 329 0.0 0.0 0.00 0.00 0.00 81 1021.4
20260903201553 79 329 0.0 0.0 0.00 0.00 0.00 80 1021.4
20260903201052 80 329 0.0 1.0 0.00 0.00 0.00 80 1021.3
20260903200554 80 329 0.0 1.0 0.00 0.00 0.00 79 1021.2
20260903200052 80 329 0.0 0.0 0.00 0.00 0.00 78 1021.3
20260903195551 80 329 0.0 2.0 0.00 0.00 0.00 76 1021.2
20260903195051 80 328 0.0 4.0 0.00 0.00 0.00 71 1021.1
20260903194555 81 327 1.0 4.0 0.00 0.00 0.00 73 1021.0
20260903194051 81 360 0.0 2.0 0.00 0.00 0.00 77 1020.8
20260903193551 81 360 0.0 4.0 0.00 0.00 0.00 77 1020.8
20260903193051 81 360 1.0 4.0 0.00 0.00 0.00 69 1020.7
20260903192550 81 5 1.0 5.0 0.00 0.00 0.00 70 1020.6
20260903192050 81 9 1.0 6.0 0.00 0.00 0.00 71 1020.4
20260903191550 81 9 3.0 6.0 0.00 0.00 0.00 72 1020.4
20260903191051 80 344 2.0 5.0 0.00 0.00 0.00 73 1020.4
20260903190555 80 355 1.0 5.0 0.00 0.00 0.00 76 1020.4
20260903190050 81 288 1.0 4.0 0.00 0.00 0.00 78 1020.5
20260903185551 81 138 0.0 0.0 0.00 0.00 0.00 79 1020.4
20260903185051 81 138 0.0 0.0 0.00 0.00 0.00 79 1020.4
20260903184550 81 138 0.0 0.0 0.00 0.00 0.00 79 1020.5
20260903184050 81 138 0.0 0.0 0.00 0.00 0.00 79 1020.6
20260903183549 82 138 0.0 0.0 0.00 0.00 0.00 78 1020.6
20260903183049 82 138 0.0 0.0 0.00 0.00 0.00 78 1020.6
20260903182549 82 138 0.0 0.0 0.00 0.00 0.00 78 1020.6
20260903182049 82 138 0.0 0.0 0.00 0.00 0.00 77 1020.6
20260903181549 82 138 0.0 0.0 0.00 0.00 0.00 77 1020.7
20260903181048 82 138 0.0 0.0 0.00 0.00 0.00 77 1020.6
20260903180549 82 138 0.0 0.0 0.00 0.00 0.00 77 1020.6
20260903180050 82 138 0.0 0.0 0.00 0.00 0.00 77 1020.6
20260903175549 83 137 0.0 0.0 0.00 0.00 0.00 76 1020.7
20260903175048 83 137 0.0 0.0 0.00 0.00 0.00 77 1020.6
20260903174548 83 137 0.0 0.0 0.00 0.00 0.00 77 1020.7
20260903174048 82 137 0.0 0.0 0.00 0.00 0.00 77 1020.7
20260903173552 82 137 0.0 0.0 0.00 0.00 0.00 77 1020.7
20260903173047 82 137 0.0 0.0 0.00 0.00 0.00 77 1020.8
20260903172548 82 137 0.0 0.0 0.00 0.00 0.00 77 1020.8
20260903172047 82 137 0.0 0.0 0.00 0.00 0.00 77 1020.8
20260903171551 82 137 0.0 0.0 0.00 0.00 0.00 77 1020.8
20260903171047 82 137 0.0 0.0 0.00 0.00 0.00 78 1020.9
20260903170547 82 137 0.0 3.0 0.00 0.00 0.00 78 1020.9
20260903170048 82 137 0.0 3.0 0.00 0.00 0.00 78 1020.9
20260903165546 82 130 1.0 4.0 0.00 0.00 0.00 78 1021.0
20260903165050 82 124 2.0 4.0 0.00 0.00 0.00 78 1020.9
20260903164547 82 130 1.0 7.0 0.00 0.00 0.00 78 1020.9
20260903164046 83 123 3.0 7.0 0.00 0.00 0.00 77 1020.9
20260903163546 83 155 1.0 7.0 0.00 0.00 0.00 77 1021.0
20260903163046 82 144 2.0 7.0 0.00 0.00 0.00 77 1021.0
20260903162545 82 113 3.0 7.0 0.00 0.00 0.00 77 1021.1
20260903162045 82 152 2.0 9.0 0.00 0.00 0.00 77 1021.0
20260903161545 82 117 4.0 9.0 0.00 0.00 0.00 77 1021.0
20260903161045 83 126 6.0 9.0 0.00 0.00 0.00 76 1021.1
20260903160544 83 154 5.0 8.0 0.00 0.00 0.00 75 1021.2
20260903160046 83 120 3.0 7.0 0.00 0.00 0.00 74 1021.1
20260903155548 84 110 4.0 8.0 0.00 0.00 0.00 74 1021.1
20260903155043 83 171 2.0 8.0 0.00 0.00 0.00 74 1021.1